New Bern, NC

10:03 PM EDT on April 24, 2017 (GMT -0400)
Craven County Regional

Weather History for KEWN - June, 2013

Change the Weather History Date:

Sunday, June 23, 2013

  Actual Average Record
Temperature  
Mean Temperature 79 °F 79 °F  
Max Temperature 88 °F 88 °F 98 °F (1954)
Min Temperature 70 °F 69 °F 53 °F (1992)
Degree Days  
Heating Degree Days 0 0  
Month to date heating degree days 0 0  
Since 1 June heating degree days 0 0  
Since 1 July heating degree days 2585 2701  
Cooling Degree Days 14 14  
Month to date cooling degree days 296 264  
Year to date cooling degree days 552 507  
Since 1 June cooling degree days 296 264  
Growing Degree Days 28 (Base 50)    
Moisture  
Dew Point 72 °F    
Average Humidity 78    
Maximum Humidity 94    
Minimum Humidity 61    
Precipitation  
Precipitation 2.31 in 0.16 in 2.31 in (2013)
Month to date precipitation 6.53 3.45  
Year to date precipitation 17.88 22.84  
Snow  
Snow 0.00 in - - ()
Month to date snowfall 0.0  
Since 1 July snowfall T  
Snow Depth 0.00 in    
Sea Level Pressure  
Sea Level Pressure 30.21 in    
Wind  
Wind Speed 4 mph (SSE)    
Max Wind Speed 14 mph    
Max Gust Speed 18 mph    
Visibility 5 miles    
Events Fog , Rain , Thunderstorm    
T = Trace of Precipitation, MM = Missing Value Source: NWS Daily Summary

Daily Weather History Graph

Daily Weather History Graph

Search for Another Location

Airport or City:

Trip Planner

Search our weather history database for the weather conditions in past years. The results will help you decide how hot, cold, wet, or windy it might be!

Date:

Astronomy

Jun. 23, 2013 Rise Set
Actual Time 5:54 AM EDT 8:25 PM EDT
Civil Twilight 5:25 AM EDT 8:55 PM EDT
Nautical Twilight 4:48 AM EDT 9:32 PM EDT
Astronomical Twilight 4:07 AM EDT 10:13 PM EDT
Moon 8:39 PM EDT (6/23) 6:07 AM EDT (6/23)
Length of Visible Light 15h 30m
Length of Day
14h 31m
Full, 100% of the Moon is Illuminated
Jun 23
Full
Jun 30
Last Quarter
Jul 8
New
Jul 15
First Quarter
Jul 22
Full

Hourly Weather History & Observations

Time (EDT) Temp. Heat Index Dew Point Humidity Pressure Visibility Wind Dir Wind Speed Gust Speed Precip Events Conditions
12:54 AM 73.0 °F - 71.1 °F 93% 30.19 in 9.0 mi Calm Calm - N/A   Clear
1:07 AM 71.6 °F - 69.8 °F 94% 30.19 in 1.5 mi Calm Calm - N/A   Clear
1:20 AM 71.6 °F - 69.8 °F 94% 30.19 in 0.8 mi Calm Calm - N/A   Mist
1:28 AM 71.6 °F - 69.8 °F 94% 30.19 in 0.5 mi Calm Calm - N/A Fog Fog
1:43 AM 71.6 °F - 69.8 °F 94% 30.19 in 0.8 mi Calm Calm - N/A   Mist
1:52 AM 71.6 °F - 69.8 °F 94% 30.19 in 1.0 mi Calm Calm - N/A   Mist
1:54 AM 71.1 °F - 69.1 °F 93% 30.19 in 1.5 mi Calm Calm - N/A   Scattered Clouds
1:59 AM 71.6 °F - 69.8 °F 94% 30.19 in 0.8 mi Calm Calm - N/A   Mist
2:08 AM 71.6 °F - 69.8 °F 94% 30.19 in 1.0 mi Calm Calm - N/A   Mist
2:13 AM 71.6 °F - 69.8 °F 94% 30.19 in 1.8 mi Calm Calm - N/A   Scattered Clouds
2:16 AM 71.6 °F - 69.8 °F 94% 30.19 in 0.8 mi Calm Calm - N/A   Mist
2:24 AM 69.8 °F - 69.8 °F 100% 30.19 in 0.5 mi Calm Calm - N/A Fog Fog
2:29 AM 69.8 °F - 69.8 °F 100% 30.19 in 1.0 mi Calm Calm - N/A   Mist
2:31 AM 69.8 °F - 69.8 °F 100% 30.19 in 2.5 mi Calm Calm - N/A   Partly Cloudy
2:38 AM 71.6 °F - 69.8 °F 94% 30.19 in 9.0 mi Calm Calm - N/A   Partly Cloudy
2:54 AM 71.1 °F - 69.1 °F 93% 30.18 in 8.0 mi Calm Calm - N/A   Clear
3:04 AM 71.6 °F - 69.8 °F 94% 30.18 in 2.5 mi Calm Calm - N/A   Clear
3:12 AM 71.6 °F - 69.8 °F 94% 30.18 in 6.0 mi SSW 3.5 mph - N/A   Clear
6:54 AM 75.0 °F - 72.0 °F 90% 30.20 in 10.0 mi SSE 3.5 mph - N/A   Clear
7:54 AM 79.0 °F - 73.9 °F 84% 30.21 in 10.0 mi South 8.1 mph - N/A   Clear
8:54 AM 82.0 °F 87.9 °F 73.9 °F 76% 30.23 in 10.0 mi SSW 6.9 mph - N/A   Partly Cloudy
9:54 AM 82.9 °F 88.0 °F 72.0 °F 69% 30.22 in 10.0 mi WSW 6.9 mph - N/A   Partly Cloudy
10:54 AM 86.0 °F 92.2 °F 72.0 °F 63% 30.23 in 10.0 mi WSW 5.8 mph - N/A   Mostly Cloudy
11:54 AM 84.0 °F 89.6 °F 72.0 °F 67% 30.22 in 10.0 mi South 6.9 mph - N/A   Mostly Cloudy
12:38 PM 84.2 °F 90.9 °F 73.4 °F 70% 30.22 in 10.0 mi SE 10.4 mph - N/A Thunderstorm Thunderstorm
12:54 PM 82.9 °F 89.4 °F 73.9 °F 74% 30.22 in 10.0 mi SSE 6.9 mph - N/A   Overcast
1:02 PM 84.2 °F 90.9 °F 73.4 °F 70% 30.21 in 10.0 mi South 8.1 mph - N/A Thunderstorm Thunderstorm
1:17 PM 86.0 °F 95.1 °F 75.2 °F 70% 30.21 in 10.0 mi SE 11.5 mph - N/A   Mostly Cloudy
1:30 PM 80.6 °F 85.4 °F 73.4 °F 79% 30.22 in 2.0 mi Calm Calm - 0.05 in Rain Heavy Rain
1:37 PM 78.8 °F - 73.4 °F 83% 30.22 in 1.0 mi Calm Calm - 0.13 in Rain Heavy Rain
1:45 PM 78.8 °F - 73.4 °F 83% 30.22 in 2.0 mi Calm Calm - 0.14 in Rain , Thunderstorm Light Thunderstorms and Rain
1:54 PM 81.0 °F 86.7 °F 75.0 °F 82% 30.22 in 10.0 mi Calm Calm - 0.14 in Rain , Thunderstorm Light Thunderstorms and Rain
2:16 PM 82.4 °F 90.9 °F 77.0 °F 84% 30.22 in 10.0 mi ENE 8.1 mph - 0.00 in Rain Light Rain
2:26 PM 78.8 °F - 73.4 °F 83% 30.21 in 10.0 mi East 6.9 mph - 0.00 in Rain , Thunderstorm Light Rain
2:37 PM 78.8 °F - 73.4 °F 83% 30.22 in 10.0 mi Calm Calm - 0.00 in Thunderstorm Mostly Cloudy
2:54 PM 79.0 °F - 73.9 °F 84% 30.22 in 10.0 mi Variable 3.5 mph - 0.00 in Rain , Thunderstorm Light Rain
3:00 PM 77.0 °F - 73.4 °F 89% 30.23 in 1.5 mi WSW 5.8 mph - 0.11 in Rain , Thunderstorm Rain
3:02 PM 75.2 °F - 73.4 °F 94% 30.23 in 0.8 mi WSW 5.8 mph - 0.20 in Rain , Thunderstorm Heavy Rain
3:09 PM 73.4 °F - 71.6 °F 94% 30.22 in 0.2 mi WNW 6.9 mph - 0.38 in Fog , Rain , Thunderstorm Heavy Thunderstorms and Rain
3:16 PM 73.4 °F - 71.6 °F 94% 30.21 in 1.0 mi Calm Calm - 0.47 in Rain , Thunderstorm Heavy Thunderstorms and Rain
3:31 PM 73.4 °F - 71.6 °F 94% 30.22 in 2.0 mi South 11.5 mph - 0.58 in Rain , Thunderstorm Heavy Thunderstorms and Rain
3:38 PM 73.4 °F - 71.6 °F 94% 30.21 in 1.2 mi Calm Calm - 0.67 in Rain , Thunderstorm Heavy Rain
3:42 PM 73.4 °F - 71.6 °F 94% 30.22 in 0.8 mi SSW 3.5 mph - 0.76 in Rain , Thunderstorm Heavy Rain
3:48 PM 73.4 °F - 71.6 °F 94% 30.22 in 1.0 mi South 3.5 mph - 0.79 in Rain , Thunderstorm Heavy Thunderstorms and Rain
3:54 PM 73.9 °F - 72.0 °F 93% 30.22 in 1.2 mi SSE 3.5 mph - 0.90 in Rain , Thunderstorm Heavy Thunderstorms and Rain
4:14 PM 73.4 °F - 71.6 °F 94% 30.22 in 1.8 mi ESE 4.6 mph - 0.13 in Rain Heavy Rain
4:39 PM 73.4 °F - 71.6 °F 94% 30.21 in 1.2 mi Calm Calm - 0.40 in Rain , Thunderstorm Heavy Rain
4:54 PM 73.9 °F - 72.0 °F 93% 30.20 in 2.0 mi SSE 5.8 mph - 0.54 in Rain , Thunderstorm Rain
5:36 PM 75.2 °F - 73.4 °F 94% 30.21 in 2.0 mi Calm Calm - 0.24 in Rain , Thunderstorm Heavy Thunderstorms and Rain
5:38 PM 75.2 °F - 73.4 °F 94% 30.21 in 1.5 mi Calm Calm - 0.24 in Rain , Thunderstorm Heavy Thunderstorms and Rain
5:44 PM 75.2 °F - 73.4 °F 94% 30.22 in 3.0 mi Calm Calm - 0.24 in Rain , Thunderstorm Light Thunderstorms and Rain
5:48 PM 75.2 °F - 73.4 °F 94% 30.22 in 1.8 mi Variable 3.5 mph - 0.33 in Rain , Thunderstorm Light Thunderstorms and Rain
5:54 PM 75.0 °F - 72.0 °F 90% 30.22 in 1.5 mi South 5.8 mph - 0.33 in Rain , Thunderstorm Light Rain
5:57 PM 75.2 °F - 71.6 °F 89% 30.22 in 3.0 mi SE 4.6 mph - 0.01 in Rain , Thunderstorm Light Rain
6:05 PM 75.2 °F - 73.4 °F 94% 30.22 in 2.0 mi ESE 5.8 mph - 0.02 in Rain , Thunderstorm Light Thunderstorms and Rain
6:10 PM 75.2 °F - 71.6 °F 89% 30.23 in 2.0 mi East 3.5 mph - 0.10 in Rain , Thunderstorm Light Thunderstorms and Rain
6:15 PM 73.4 °F - 71.6 °F 94% 30.23 in 0.8 mi North 5.8 mph - 0.20 in Rain , Thunderstorm Heavy Thunderstorms and Rain
6:22 PM 73.4 °F - 71.6 °F 94% 30.23 in 2.0 mi NE 5.8 mph - 0.20 in Rain , Thunderstorm Light Thunderstorms and Rain
6:29 PM 73.4 °F - 71.6 °F 94% 30.22 in 4.0 mi ENE 6.9 mph - 0.20 in Thunderstorm Overcast
6:44 PM 75.2 °F - 71.6 °F 89% 30.22 in 10.0 mi East 5.8 mph - 0.20 in Thunderstorm Thunderstorm
6:52 PM 75.2 °F - 73.4 °F 94% 30.22 in 10.0 mi SE 4.6 mph - 0.20 in   Mostly Cloudy
6:54 PM 75.0 °F - 73.0 °F 94% 30.22 in 4.0 mi SSE 4.6 mph - 0.22 in   Mostly Cloudy
6:58 PM 75.2 °F - 71.6 °F 89% 30.23 in 1.8 mi SE 8.1 mph - 0.04 in Rain Heavy Rain
7:04 PM 75.2 °F - 71.6 °F 89% 30.22 in 1.5 mi SE 10.4 mph 18.4 mph 0.07 in Rain , Thunderstorm Rain
7:17 PM 75.2 °F - 71.6 °F 89% 30.21 in 4.0 mi ESE 6.9 mph - 0.15 in Rain , Thunderstorm Light Rain
7:25 PM 75.2 °F - 71.6 °F 89% 30.21 in 9.0 mi SE 4.6 mph - 0.16 in Rain Light Rain
7:54 PM 75.0 °F - 72.0 °F 90% 30.19 in 10.0 mi Calm Calm - 0.17 in Rain Light Rain
8:54 PM 75.0 °F - 73.0 °F 94% 30.20 in 10.0 mi South 3.5 mph - 0.01 in   Clear
9:54 PM 75.9 °F - 73.9 °F 94% 30.21 in 10.0 mi SSW 4.6 mph - N/A   Clear
10:54 PM 75.9 °F - 73.0 °F 91% 30.22 in 10.0 mi SSW 4.6 mph - 0.00 in   Clear
11:54 PM 75.0 °F - 73.0 °F 94% 30.21 in 10.0 mi Calm Calm - N/A   Clear